| time (UTC) | temp F | wind direction | speed knots | gust knots | rain 1hr in | rain 24hr in | rain mn in | humidity % | barometer mb |
| 20260504175005 | 69 | 318 | 4.3 | 11.3 | 0.00 | 0.00 | 0.00 | 36 | 1007.1 |
| 20260504174516 | 68 | 298 | 4.3 | 11.3 | 0.00 | 0.00 | 0.00 | 37 | 1007.2 |
| 20260504174007 | 68 | 221 | 4.3 | 14.8 | 0.00 | 0.00 | 0.00 | 37 | 1007.2 |
| 20260504173506 | 68 | 56 | 6.1 | 14.8 | 0.00 | 0.00 | 0.00 | 36 | 1007.3 |
| 20260504173023 | 68 | 234 | 2.6 | 12.2 | 0.00 | 0.00 | 0.00 | 36 | 1007.3 |
| 20260504172505 | 67 | 185 | 3.5 | 12.2 | 0.00 | 0.00 | 0.00 | 38 | 1007.3 |
| 20260504172009 | 67 | 259 | 6.1 | 12.2 | 0.00 | 0.00 | 0.00 | 36 | 1007.3 |
| 20260504171529 | 67 | 219 | 1.7 | 11.3 | 0.00 | 0.00 | 0.00 | 36 | 1007.2 |
| 20260504171003 | 68 | 243 | 5.2 | 15.6 | 0.00 | 0.00 | 0.00 | 34 | 1007.4 |
| 20260504170502 | 69 | 272 | 4.3 | 16.5 | 0.00 | 0.00 | 0.00 | 36 | 1007.4 |
| 20260504151007 | 65 | 214 | 8.7 | 17.4 | 0.00 | 0.00 | 0.00 | 39 | 1008.5 |
| 20260504150511 | 65 | 206 | 6.1 | 13.0 | 0.00 | 0.00 | 0.00 | 39 | 1008.6 |
| 20260504141002 | 61 | 205 | 7.0 | 13.9 | 0.00 | 0.00 | 0.00 | 46 | 1009.3 |
| 20260504140502 | 61 | 211 | 6.1 | 10.4 | 0.00 | 0.00 | 0.00 | 46 | 1009.3 |
| 20260504130508 | 55 | 124 | 1.7 | 7.0 | 0.00 | 0.00 | 0.00 | 56 | 1009.8 |
| 20260504110506 | 45 | 238 | 4.3 | 9.6 | 0.00 | 0.00 | 0.00 | 67 | 1010.8 |
| 20260504100504 | 37 | 222 | 0.0 | 0.9 | 0.00 | 0.00 | 0.00 | 84 | 1010.3 |
| 20260504082007 | 40 | 219 | 0.0 | 0.9 | 0.00 | 0.00 | 0.00 | 79 | 1010.0 |
| 20260504081520 | 40 | 220 | 0.0 | 0.9 | 0.00 | 0.00 | 0.00 | 78 | 1010.0 |
| 20260504081013 | 40 | 220 | 0.0 | 0.9 | 0.00 | 0.00 | 0.00 | 78 | 1009.9 |
| 20260504080507 | 40 | 220 | 0.0 | 1.7 | 0.00 | 0.00 | 0.00 | 79 | 1010.0 |
| 20260504050508 | 39 | 54 | 0.0 | 0.0 | 0.00 | 0.00 | 0.00 | 83 | 1010.3 |
| 20260504050015 | 39 | 55 | 0.0 | 0.0 | 0.00 | 0.00 | 0.00 | 83 | 1010.4 |
| 20260504045502 | 38 | 335 | 0.0 | 0.0 | 0.00 | 0.00 | 0.00 | 83 | 1010.4 |
| 20260504045004 | 38 | 326 | 0.0 | 0.0 | 0.00 | 0.00 | 0.00 | 83 | 1010.6 |
| 20260504044504 | 38 | 326 | 0.0 | 0.0 | 0.00 | 0.00 | 0.00 | 83 | 1010.5 |
| 20260504044005 | 38 | 326 | 0.0 | 0.0 | 0.00 | 0.00 | 0.00 | 84 | 1010.4 |
| 20260504043503 | 38 | 326 | 0.0 | 0.0 | 0.00 | 0.00 | 0.00 | 83 | 1010.4 |
| 20260504043007 | 37 | 326 | 0.0 | 0.0 | 0.00 | 0.00 | 0.00 | 83 | 1010.4 |
| 20260504042505 | 37 | 326 | 0.0 | 0.0 | 0.00 | 0.00 | 0.00 | 83 | 1010.5 |
| 20260504042004 | 37 | 326 | 0.0 | 0.0 | 0.00 | 0.00 | 0.00 | 82 | 1010.4 |
| 20260504041510 | 37 | 326 | 0.0 | 0.0 | 0.00 | 0.00 | 0.00 | 81 | 1010.4 |
| 20260504041002 | 37 | 326 | 0.0 | 0.0 | 0.00 | 0.00 | 0.00 | 82 | 1010.4 |
| 20260504040502 | 37 | 326 | 0.0 | 0.0 | 0.00 | 0.00 | 0.00 | 82 | 1010.3 |
| 20260504040034 | 37 | 326 | 0.0 | 0.0 | 0.00 | 0.00 | 0.00 | 83 | 1010.3 |
| 20260504035508 | 36 | 326 | 0.0 | 0.0 | 0.00 | 0.00 | 0.00 | 83 | 1010.3 |
| 20260504035008 | 36 | 326 | 0.0 | 0.0 | 0.00 | 0.00 | 0.00 | 82 | 1010.3 |
| 20260504034523 | 36 | 326 | 0.0 | 0.0 | 0.00 | 0.00 | 0.00 | 82 | 1010.2 |
| 20260504034007 | 36 | 326 | 0.0 | 0.0 | 0.00 | 0.00 | 0.00 | 82 | 1010.2 |
| 20260504033503 | 36 | 326 | 0.0 | 0.0 | 0.00 | 0.00 | 0.00 | 83 | 1010.2 |
| 20260504033006 | 35 | 326 | 0.0 | 0.0 | 0.00 | 0.00 | 0.00 | 83 | 1010.1 |
| 20260504032503 | 35 | 326 | 0.0 | 0.0 | 0.00 | 0.00 | 0.00 | 83 | 1010.1 |
| 20260504032003 | 35 | 326 | 0.0 | 0.0 | 0.00 | 0.00 | 0.00 | 83 | 1010.1 |
| 20260504031507 | 35 | 326 | 0.0 | 0.0 | 0.00 | 0.00 | 0.00 | 82 | 1010.1 |
| 20260504031004 | 35 | 326 | 0.0 | 0.0 | 0.00 | 0.00 | 0.00 | 82 | 1010.1 |
| 20260504030504 | 35 | 326 | 0.0 | 0.0 | 0.00 | 0.00 | 0.00 | 81 | 1010.1 |
| 20260504030010 | 35 | 326 | 0.0 | 0.0 | 0.00 | 0.00 | 0.00 | 81 | 1010.1 |
| 20260504025504 | 35 | 326 | 0.0 | 0.0 | 0.00 | 0.00 | 0.00 | 81 | 1010.0 |
| 20260504025009 | 35 | 325 | 0.0 | 0.0 | 0.00 | 0.00 | 0.00 | 81 | 1010.1 |
| 20260504024516 | 35 | 321 | 0.0 | 0.0 | 0.00 | 0.00 | 0.00 | 81 | 1010.0 |
| 20260504024008 | 35 | 321 | 0.0 | 0.0 | 0.00 | 0.00 | 0.00 | 81 | 1010.1 |
| 20260504023509 | 35 | 319 | 0.0 | 0.0 | 0.00 | 0.00 | 0.00 | 80 | 1010.0 |
| 20260504023019 | 36 | 319 | 0.0 | 0.0 | 0.00 | 0.00 | 0.00 | 80 | 1010.0 |
| 20260504022506 | 36 | 319 | 0.0 | 0.0 | 0.00 | 0.00 | 0.00 | 80 | 1010.0 |
| 20260504022009 | 36 | 319 | 0.0 | 0.0 | 0.00 | 0.00 | 0.00 | 79 | 1009.9 |
| 20260504021504 | 36 | 319 | 0.0 | 0.0 | 0.00 | 0.00 | 0.00 | 78 | 1009.8 |
| 20260504021003 | 36 | 319 | 0.0 | 0.0 | 0.00 | 0.00 | 0.00 | 78 | 1009.7 |
| 20260504020504 | 36 | 319 | 0.0 | 0.0 | 0.00 | 0.00 | 0.00 | 77 | 1009.7 |
| 20260504020008 | 37 | 319 | 0.0 | 0.0 | 0.00 | 0.00 | 0.00 | 77 | 1009.6 |
| 20260504015504 | 37 | 319 | 0.0 | 0.0 | 0.00 | 0.00 | 0.00 | 76 | 1009.6 |
| 20260504015007 | 37 | 319 | 0.0 | 0.0 | 0.00 | 0.00 | 0.00 | 76 | 1009.6 |
| 20260504014521 | 37 | 319 | 0.0 | 0.0 | 0.00 | 0.00 | 0.00 | 75 | 1009.6 |
| 20260504014003 | 37 | 319 | 0.0 | 0.0 | 0.00 | 0.00 | 0.00 | 74 | 1009.5 |
| 20260504013506 | 38 | 319 | 0.0 | 0.0 | 0.00 | 0.00 | 0.00 | 74 | 1009.5 |
| 20260504013019 | 38 | 319 | 0.0 | 0.0 | 0.00 | 0.00 | 0.00 | 74 | 1009.5 |
| 20260504012507 | 38 | 319 | 0.0 | 0.0 | 0.00 | 0.00 | 0.00 | 74 | 1009.4 |
| 20260504012008 | 38 | 319 | 0.0 | 0.0 | 0.00 | 0.00 | 0.00 | 74 | 1009.4 |
| 20260504011523 | 38 | 319 | 0.0 | 0.0 | 0.00 | 0.00 | 0.00 | 74 | 1009.3 |
| 20260504011010 | 39 | 319 | 0.0 | 0.0 | 0.00 | 0.00 | 0.00 | 73 | 1009.3 |
| 20260504010507 | 39 | 319 | 0.0 | 0.0 | 0.00 | 0.00 | 0.00 | 72 | 1009.1 |
| 20260504010024 | 39 | 319 | 0.0 | 0.0 | 0.00 | 0.00 | 0.00 | 73 | 1009.0 |
| 20260504005504 | 40 | 313 | 0.0 | 0.0 | 0.00 | 0.00 | 0.00 | 72 | 1008.9 |
| 20260504005003 | 40 | 313 | 0.0 | 0.0 | 0.00 | 0.00 | 0.00 | 71 | 1008.9 |
| 20260504004511 | 40 | 311 | 0.0 | 0.0 | 0.00 | 0.00 | 0.00 | 69 | 1008.8 |
| 20260504004002 | 41 | 311 | 0.0 | 0.0 | 0.00 | 0.00 | 0.00 | 69 | 1008.7 |
| 20260504003507 | 41 | 311 | 0.0 | 0.0 | 0.00 | 0.00 | 0.00 | 68 | 1008.7 |
| 20260504003012 | 42 | 311 | 0.0 | 0.0 | 0.00 | 0.00 | 0.00 | 66 | 1008.7 |
| 20260504002504 | 42 | 312 | 0.0 | 0.0 | 0.00 | 0.00 | 0.00 | 67 | 1008.6 |
| 20260504002008 | 42 | 311 | 0.0 | 0.0 | 0.00 | 0.00 | 0.00 | 66 | 1008.6 |
| 20260504001518 | 43 | 312 | 0.0 | 0.0 | 0.00 | 0.00 | 0.00 | 65 | 1008.5 |
| 20260504001008 | 44 | 312 | 0.0 | 0.0 | 0.00 | 0.00 | 0.00 | 64 | 1008.4 |
| 20260504000506 | 44 | 312 | 0.0 | 0.0 | 0.00 | 0.00 | 0.00 | 61 | 1008.4 |
| 20260504000024 | 45 | 312 | 0.0 | 0.0 | 0.00 | 0.00 | 0.00 | 60 | 1008.3 |
| 20260503235507 | 46 | 312 | 0.0 | 0.0 | 0.00 | 0.00 | 0.00 | 60 | 1008.3 |
| 20260503235007 | 46 | 312 | 0.0 | 0.0 | 0.00 | 0.00 | 0.00 | 58 | 1008.3 |
| 20260503234524 | 47 | 312 | 0.0 | 0.0 | 0.00 | 0.00 | 0.00 | 57 | 1008.3 |
| 20260503234004 | 48 | 264 | 0.0 | 0.9 | 0.00 | 0.00 | 0.00 | 50 | 1008.2 |
| 20260503233503 | 49 | 233 | 0.0 | 0.9 | 0.00 | 0.00 | 0.00 | 49 | 1008.2 |
| 20260503233009 | 50 | 280 | 0.0 | 0.9 | 0.00 | 0.00 | 0.00 | 49 | 1008.2 |
| 20260503232507 | 50 | 280 | 0.0 | 1.7 | 0.00 | 0.00 | 0.00 | 48 | 1008.2 |
| 20260503232007 | 51 | 58 | 0.0 | 1.7 | 0.00 | 0.00 | 0.00 | 44 | 1008.2 |
| 20260503231516 | 51 | 338 | 0.0 | 3.5 | 0.00 | 0.00 | 0.00 | 43 | 1008.1 |
| 20260503231008 | 52 | 347 | 0.0 | 3.5 | 0.00 | 0.00 | 0.00 | 43 | 1008.1 |
| 20260503230508 | 52 | 3 | 0.0 | 3.5 | 0.00 | 0.00 | 0.00 | 43 | 1008.0 |
| 20260503230021 | 52 | 26 | 0.9 | 2.6 | 0.00 | 0.00 | 0.00 | 41 | 1008.1 |
| 20260503225506 | 53 | 358 | 0.0 | 3.5 | 0.00 | 0.00 | 0.00 | 43 | 1008.1 |
| 20260503225012 | 53 | 342 | 2.6 | 4.3 | 0.00 | 0.00 | 0.00 | 42 | 1008.0 |
| 20260503224524 | 53 | 328 | 0.9 | 5.2 | 0.00 | 0.00 | 0.00 | 40 | 1008.1 |
| 20260503224007 | 53 | 309 | 1.7 | 6.1 | 0.00 | 0.00 | 0.00 | 39 | 1008.0 |
| 20260503223508 | 53 | 341 | 1.7 | 6.1 | 0.00 | 0.00 | 0.00 | 40 | 1008.1 |
| 20260503223028 | 52 | 8 | 0.9 | 4.3 | 0.00 | 0.00 | 0.00 | 43 | 1008.1 |
| 20260503222508 | 52 | 353 | 0.9 | 6.1 | 0.00 | 0.00 | 0.00 | 42 | 1008.2 |
| 20260503222004 | 52 | 326 | 1.7 | 6.1 | 0.00 | 0.00 | 0.00 | 43 | 1008.1 |
| 20260503221511 | 52 | 300 | 2.6 | 5.2 | 0.00 | 0.00 | 0.00 | 41 | 1008.1 |
| 20260503221006 | 52 | 354 | 0.9 | 3.5 | 0.00 | 0.00 | 0.00 | 44 | 1008.1 |
| 20260503220504 | 52 | 290 | 1.7 | 6.1 | 0.00 | 0.00 | 0.00 | 41 | 1008.1 |
| 20260503220017 | 52 | 321 | 3.5 | 6.1 | 0.00 | 0.00 | 0.00 | 42 | 1008.2 |
| 20260503215509 | 51 | 315 | 1.7 | 4.3 | 0.00 | 0.00 | 0.00 | 44 | 1008.1 |
| 20260503215011 | 51 | 326 | 1.7 | 4.3 | 0.00 | 0.00 | 0.00 | 43 | 1008.1 |
| 20260503214522 | 52 | 291 | 1.7 | 6.1 | 0.00 | 0.00 | 0.00 | 43 | 1008.2 |
| 20260503214008 | 52 | 322 | 1.7 | 6.1 | 0.00 | 0.00 | 0.00 | 41 | 1008.2 |
| 20260503213511 | 52 | 6 | 1.7 | 5.2 | 0.00 | 0.00 | 0.00 | 41 | 1008.1 |
| 20260503213024 | 52 | 267 | 1.7 | 4.3 | 0.00 | 0.00 | 0.00 | 40 | 1008.2 |
| 20260503212509 | 52 | 274 | 0.9 | 4.3 | 0.00 | 0.00 | 0.00 | 41 | 1008.1 |
| 20260503212009 | 52 | 293 | 0.9 | 4.3 | 0.00 | 0.00 | 0.00 | 42 | 1008.1 |
| 20260503211528 | 53 | 283 | 0.9 | 4.3 | 0.00 | 0.00 | 0.00 | 41 | 1008.0 |
| 20260503211011 | 53 | 311 | 1.7 | 8.7 | 0.00 | 0.00 | 0.00 | 40 | 1008.0 |
| 20260503210506 | 53 | 321 | 2.6 | 13.9 | 0.00 | 0.00 | 0.00 | 38 | 1008.0 |
| 20260503210015 | 53 | 347 | 6.1 | 13.9 | 0.00 | 0.00 | 0.00 | 39 | 1007.9 |
| 20260503205510 | 54 | 350 | 6.1 | 13.9 | 0.00 | 0.00 | 0.00 | 39 | 1008.0 |
| 20260503205007 | 53 | 274 | 2.6 | 8.7 | 0.00 | 0.00 | 0.00 | 41 | 1007.8 |
| 20260503204526 | 53 | 352 | 4.3 | 8.7 | 0.00 | 0.00 | 0.00 | 40 | 1007.9 |
| 20260503204012 | 52 | 332 | 2.6 | 7.8 | 0.00 | 0.00 | 0.00 | 39 | 1008.0 |
| 20260503203507 | 53 | 304 | 2.6 | 9.6 | 0.00 | 0.00 | 0.00 | 40 | 1007.9 |
| 20260503203024 | 53 | 12 | 5.2 | 9.6 | 0.00 | 0.00 | 0.00 | 41 | 1007.8 |
| 20260503202507 | 54 | 352 | 1.7 | 13.0 | 0.00 | 0.00 | 0.00 | 42 | 1007.8 |
| 20260503202005 | 53 | 335 | 4.3 | 13.0 | 0.00 | 0.00 | 0.00 | 42 | 1007.8 |
| 20260503201506 | 52 | 343 | 6.1 | 13.0 | 0.00 | 0.00 | 0.00 | 43 | 1007.8 |
| 20260503201004 | 51 | 353 | 2.6 | 9.6 | 0.00 | 0.00 | 0.00 | 44 | 1007.8 |
| 20260503200505 | 51 | 1 | 4.3 | 9.6 | 0.00 | 0.00 | 0.00 | 42 | 1007.9 |
| 20260503200012 | 51 | 328 | 1.7 | 11.3 | 0.00 | 0.00 | 0.00 | 44 | 1007.9 |
| 20260503195506 | 51 | 300 | 3.5 | 11.3 | 0.00 | 0.00 | 0.00 | 44 | 1007.9 |
| 20260503195005 | 51 | 4 | 6.1 | 13.0 | 0.00 | 0.00 | 0.00 | 42 | 1008.0 |
| 20260503194512 | 52 | 344 | 2.6 | 13.0 | 0.00 | 0.00 | 0.00 | 45 | 1008.0 |
| 20260503194004 | 52 | 330 | 2.6 | 9.6 | 0.00 | 0.00 | 0.00 | 45 | 1008.0 |
| 20260503193505 | 51 | 333 | 5.2 | 11.3 | 0.00 | 0.00 | 0.00 | 42 | 1008.1 |
| 20260503193006 | 51 | 337 | 3.5 | 13.9 | 0.00 | 0.00 | 0.00 | 44 | 1008.1 |
| 20260503192503 | 51 | 281 | 6.1 | 13.9 | 0.00 | 0.00 | 0.00 | 42 | 1008.1 |
| 20260503192005 | 51 | 1 | 5.2 | 11.3 | 0.00 | 0.00 | 0.00 | 43 | 1008.0 |
| 20260503191504 | 51 | 314 | 3.5 | 9.6 | 0.00 | 0.00 | 0.00 | 42 | 1007.9 |
| 20260503191004 | 52 | 346 | 4.3 | 8.7 | 0.00 | 0.00 | 0.00 | 40 | 1007.9 |
| 20260503190506 | 52 | 320 | 4.3 | 11.3 | 0.00 | 0.00 | 0.00 | 44 | 1007.9 |
| 20260503190011 | 51 | 9 | 4.3 | 12.2 | 0.00 | 0.00 | 0.00 | 43 | 1008.0 |
| 20260503185504 | 51 | 280 | 4.3 | 12.2 | 0.00 | 0.00 | 0.00 | 45 | 1008.0 |
| 20260503185007 | 51 | 327 | 5.2 | 10.4 | 0.00 | 0.00 | 0.00 | 44 | 1008.0 |
| 20260503184522 | 51 | 296 | 4.3 | 10.4 | 0.00 | 0.00 | 0.00 | 45 | 1008.0 |
| 20260503184008 | 51 | 344 | 2.6 | 11.3 | 0.00 | 0.00 | 0.00 | 46 | 1007.9 |
| 20260503183504 | 51 | 305 | 2.6 | 11.3 | 0.00 | 0.00 | 0.00 | 43 | 1007.8 |
| 20260503183016 | 52 | 295 | 3.5 | 9.6 | 0.00 | 0.00 | 0.00 | 44 | 1007.9 |
| 20260503182505 | 51 | 64 | 2.6 | 13.0 | 0.00 | 0.00 | 0.00 | 47 | 1007.9 |
| 20260503182006 | 51 | 350 | 5.2 | 13.0 | 0.00 | 0.00 | 0.00 | 44 | 1007.8 |
| 20260503181505 | 52 | 341 | 4.3 | 12.2 | 0.00 | 0.00 | 0.00 | 44 | 1007.7 |
| 20260503181003 | 52 | 335 | 3.5 | 10.4 | 0.00 | 0.00 | 0.00 | 43 | 1007.6 |
| 20260503180504 | 52 | 309 | 3.5 | 10.4 | 0.00 | 0.00 | 0.00 | 42 | 1007.6 |
| 20260503180016 | 51 | 302 | 2.6 | 10.4 | 0.00 | 0.00 | 0.00 | 43 | 1007.6 |
| 20260503175504 | 52 | 333 | 4.3 | 8.7 | 0.00 | 0.00 | 0.00 | 44 | 1007.8 |